Hourly Data Report for October 19, 2015

All times are specified in Local Standard Time (LST). Add 1 hour to adjust for Daylight Saving Time where and when it is observed.

QIKIQTARJUAQ A
NUNAVUT

67°32'48.000" N
64°01'54.000" W
5.50 m
2400577
YVM

Download Data

Hourly Data (October 2015)
Hourly Data Report for October 19, 2015
Temp Definition
°C
Dew Point Temp Definition
°C
Rel Hum Definition
%
Wind Dir Definition
10's deg

Wind Spd Definition
km/h
Visibility Definition
km
Stn Press Definition
kPa
Hmdx Definition


Wind Chill Definition


Weather Definition


TIME
00:00 Legend Double Dagger -5.8 -9.6 75 19 9 16.1 100.77   -10 LegendNANA
01:00 Legend Double Dagger -5.5 -9.6 73 19 11 16.1 100.78   -10 LegendNANA
02:00 Legend Double Dagger -5.6 -9.6 74 19 9 16.1 100.79   -10 LegendNANA
03:00 Legend Double Dagger -5.3 -10.4 68 17 13 16.1 100.78   -10 LegendNANA
04:00 Legend Double Dagger -5.3 -10.7 66 17 13 16.1 100.79   -10 LegendNANA
05:00 Legend Double Dagger -5.3 -10.7 66 17 13 16.1 100.79   -10 LegendNANA
06:00 Legend Double Dagger -5.3 -10.5 67 17 11 16.1 100.81   -10 LegendNANA
07:00 Legend Double Dagger -5.1 -10.5 66 18 11 16.1 100.80   -10 Snow
08:00 Legend Double Dagger -5.4 -9.9 71 20 9 16.1 100.78   -9 LegendNANA
09:00 Legend Double Dagger -5.7 -9.1 77 14 4 16.1 100.77   -8 LegendNANA
10:00 Legend Double Dagger -5.2 -8.9 75 19 4 16.1 100.74   -7 LegendNANA
11:00 Legend Double Dagger -4.9 -9.1 73 14 8 16.1 100.73   -8 LegendNANA
12:00 Legend Double Dagger -5.2 -9.4 73 14 4 16.1 100.73   -7 LegendNANA
13:00 Legend Double Dagger -5.6 -9.6 74 13 8 16.1 100.72   -9 LegendNANA
14:00 Legend Double Dagger -5.7 -9.6 74 17 4 16.1 100.72   -8 LegendNANA
15:00 Legend Double Dagger -5.9 -9.9 74 LegendMM 4 16.1 100.71   -8 LegendNANA
16:00 Legend Double Dagger -5.9 -9.6 75 15 4 16.1 100.72   -8 LegendNANA
17:00 Legend Double Dagger -5.7 -9.8 73 13 4 16.1 100.73   -8 LegendNANA
18:00 Legend Double Dagger -5.8 -9.4 76 15 5 16.1 100.73   -8 LegendNANA
19:00 Legend Double Dagger -5.7 -9.6 74 16 5 16.1 100.73   -8 LegendNANA
20:00 Legend Double Dagger -5.6 -10.1 71 14 8 16.1 100.73   -9 LegendNANA
21:00 Legend Double Dagger -5.1 -9.9 69 18 9 16.1 100.71   -9 LegendNANA
22:00 Legend Double Dagger -5.2 -10.3 68 17 9 16.1 100.71   -9 LegendNANA
23:00 Legend Double Dagger -5.6 -10.1 71 15 13 16.1 100.68   -11 LegendNANA

Notes on Data Quality.

Legend

  • E = Estimated
  • M = Missing
  • NA = Not Available
  • ‡ = Partner data that is not subject to review by the National Climate Archives
Date modified: